Retour au catalogue

STARLINK-35877

ActifCommunicationsVLEO
NORAD 67049·PAYLOAD·🇺🇸 United States

Lancé Dec 11, 2025 depuis Cape Canaveral Space Force Station

Loading…

Prochains Passages (prochaines 24 heures)

TLE

FraisSource: CelesTrak SupGP

Époque: Sep 15, 2026, 03:08 UTC

1 67049C 25294V   26258.13104167 -.00025856  00000+0 -93633-3 0  2586
2 67049  43.0019  48.4698 0001722 269.7348 275.6187 15.27596867    18

Suivez STARLINK-35877 en temps réel avec AllMySat

Download on the App Store